Regional Weather Roundup
Issued by NWS Cleveland, OH

Home | Current Version | Previous Version | Text Only | Print | Product List | Glossary On
Versions: 1 2 3 4 5 6 7 8 9 10 11 12 13 14 15 16 17 18 19 20 21 22 23 24 25 26 27 28 29 30 31 32 33 34 35 36 37 38 39 40 41 42 43 44 45 46 47 48 49 50
000
ASUS41 KCLE 311402
RWRCLE
OHIO REGIONAL WEATHER ROUNDUP
NATIONAL WEATHER SERVICE CLEVELAND, OH
1000 AM EDT TUE MAY 31 2016

NOTE: "FAIR" INDICATES FEW OR NO CLOUDS BELOW 12,000 FEET WITH NO
SIGNIFICANT WEATHER AND/OR OBSTRUCTIONS TO VISIBILITY.

OHZ001>008-015>018-024>027-034-035-043-044-311500-
   NORTHWEST OHIO

CITY           SKY/WX    TMP DP  RH WIND       PRES   REMARKS
DEFIANCE       CLOUDY    76  52  43 E7        30.04S
FINDLAY        CLOUDY    76  55  48 N3        30.02S
TOLEDO EXPRESS CLOUDY    75  55  49 NE8       30.03S
TOLEDO EXEC    CLOUDY    76  57  51 MISG      30.04R
LIMA           PTSUNNY   75  55  49 NE8       30.03S
$$

OHZ009>014-019>023-028>033-038-089-311500-
   NORTHEAST OHIO

CITY           SKY/WX    TMP DP  RH WIND       PRES   REMARKS
CLE-HOPKINS    CLOUDY    79  57  46 CALM      30.03S
CLE-LAKEFRONT  PTSUNNY   74  63  68 N5        30.00S
CUY CO. ARPT   PTSUNNY   79  61  53 CALM      30.03
LORAIN-ELYRIA  MOSUNNY   76  60  57 CALM      30.02S
ASHTABULA      SUNNY     74  60  61 CALM      30.03F
AKRON-CANTON   MOSUNNY   76  59  55 CALM      30.02S
WOOSTER        MOSUNNY   75  60  59 N5        30.03S
MANSFIELD      SUNNY     76  59  55 N6        30.03  HAZE
YOUNGSTOWN     CLOUDY    75  57  53 S5        30.03S
$$

OHZ042-051>053-060>062-070>072-077>081-311500-
  SOUTHWEST OHIO

CITY           SKY/WX    TMP DP  RH WIND       PRES   REMARKS
CINC-COVINGTON PTSUNNY   81  59  47 CALM      30.02S
CINC-LUNKEN    SUNNY     76  65  68 CALM      30.02S
HAMILTON       MOSUNNY   78  61  55 CALM      30.02S
DAYTON         PTSUNNY   77  59  53 E3        30.04R
WRIGHT-PAT AFB NOT AVBL
DAYTON GENERAL SUNNY     79  56  45 CALM      30.02R
WILMINGTON     SUNNY     80  62  54 W3        30.02S
$$

OHZ036-037-039>041-045>050-054>059-063>069-073>076-082>088-311500-
  CENTRAL AND SOUTHEAST OHIO

CITY           SKY/WX    TMP DP  RH WIND       PRES   REMARKS
COLUMBUS       MOSUNNY   76  58  53 CALM      30.01S
OSU AIRPORT    SUNNY     77  61  57 CALM      30.02R
BOLTON FIELD   SUNNY    N/A N/A N/A CALM      30.02
RICKENBACK AFB NOT AVBL
NEWARK         SUNNY     78  62  57 CALM      30.01S
MARION         SUNNY     77  59  53 VRB3      30.03R
LANCASTER      SUNNY     79  64  60 CALM      30.02S
ZANESVILLE     SUNNY     77  62  59 SW5       30.02S
NEW PHILLY     CLOUDY    77  61  57 SE3       30.02S
$$




USA.gov is the U.S. government's official web portal to all federal, state and local government web resources and services.